Time,TemperatureF,DewpointF,PressureIn,WindDirection,WindDirectionDegrees,WindSpeedMPH,WindSpeedGustMPH,Humidity,HourlyPrecipIn,Conditions,Clouds,dailyrainin,SolarRadiationWatts/m^2,SoftwareType,DateUTC
2013-09-18 00:02:00,51.6,36.0,29.70,South,186,0.0,5.0,55,0.00,,,0.00,0.0,meteohub,2013-09-18 07:02:00,
2013-09-18 00:07:00,51.4,36.3,29.70,South,186,0.0,4.0,56,0.00,,,0.00,0.0,meteohub,2013-09-18 07:07:00,
2013-09-18 00:12:00,51.1,36.0,29.70,South,186,0.0,3.0,56,0.00,,,0.00,0.0,meteohub,2013-09-18 07:12:00,
2013-09-18 00:17:00,50.5,36.0,29.70,ENE,60,2.0,2.0,57,0.00,,,0.00,0.0,meteohub,2013-09-18 07:17:00,
2013-09-18 00:22:00,50.2,35.6,29.70,NNE,27,0.0,6.0,57,0.00,,,0.00,0.0,meteohub,2013-09-18 07:22:00,
2013-09-18 00:27:00,50.0,36.3,29.70,NE,39,1.0,6.0,59,0.00,,,0.00,0.0,meteohub,2013-09-18 07:27:00,
2013-09-18 00:32:00,49.8,35.6,29.70,ESE,107,0.0,6.0,58,0.00,,,0.00,0.0,meteohub,2013-09-18 07:32:00,
2013-09-18 00:37:00,49.6,35.4,29.70,ESE,114,0.0,1.0,58,0.00,,,0.00,0.0,meteohub,2013-09-18 07:37:00,
2013-09-18 00:47:00,48.9,34.9,29.70,WNW,294,0.0,4.0,58,0.00,,,0.00,0.0,meteohub,2013-09-18 07:47:00,
2013-09-18 00:52:00,48.9,34.9,29.70,WNW,294,0.0,6.0,58,0.00,,,0.00,0.0,meteohub,2013-09-18 07:52:00,
2013-09-18 00:57:00,48.9,34.3,29.71,NE,56,5.0,6.0,57,0.00,,,0.00,0.0,meteohub,2013-09-18 07:57:00,
2013-09-18 01:02:00,49.1,34.5,29.71,South,176,1.0,6.0,57,0.00,,,0.00,0.0,meteohub,2013-09-18 08:02:00,
2013-09-18 01:07:00,49.1,34.5,29.71,South,188,0.0,6.0,57,0.00,,,0.00,0.0,meteohub,2013-09-18 08:07:00,
2013-09-18 01:17:00,49.3,32.9,29.70,South,186,0.0,6.0,53,0.00,,,0.00,0.0,meteohub,2013-09-18 08:17:00,
2013-09-18 01:22:00,49.6,32.2,29.71,South,191,6.0,6.0,51,0.00,,,0.00,0.0,meteohub,2013-09-18 08:22:00,
2013-09-18 01:27:00,50.4,32.0,29.71,SW,232,1.0,9.0,49,0.00,,,0.00,0.0,meteohub,2013-09-18 08:27:00,
2013-09-18 01:32:00,51.1,28.2,29.71,SSW,211,10.0,10.0,41,0.00,,,0.00,0.0,meteohub,2013-09-18 08:32:00,
2013-09-18 01:42:00,54.0,30.2,29.70,West,281,6.0,26.0,40,0.00,,,0.00,0.0,meteohub,2013-09-18 08:42:00,
2013-09-18 01:52:00,55.8,31.1,29.68,SW,226,11.0,20.0,39,0.00,,,0.00,0.0,meteohub,2013-09-18 08:52:00,
2013-09-18 02:02:00,55.0,30.6,29.68,West,278,1.0,20.0,39,0.00,,,0.00,0.0,meteohub,2013-09-18 09:02:00,
2013-09-18 02:07:00,54.7,30.9,29.68,WSW,254,0.0,18.0,40,0.00,,,0.00,0.0,meteohub,2013-09-18 09:07:00,
2013-09-18 02:17:00,54.1,29.7,29.68,West,269,7.0,19.0,39,0.00,,,0.00,0.0,meteohub,2013-09-18 09:17:00,
2013-09-18 02:27:00,54.7,31.5,29.67,NNW,329,8.0,23.0,41,0.00,,,0.00,0.0,meteohub,2013-09-18 09:27:00,
2013-09-18 02:37:00,54.9,30.9,29.67,WNW,286,5.0,21.0,40,0.00,,,0.00,0.0,meteohub,2013-09-18 09:37:00,
2013-09-18 02:47:00,54.7,30.9,29.67,WSW,253,2.0,20.0,40,0.00,,,0.00,0.0,meteohub,2013-09-18 09:47:00,
2013-09-18 02:52:00,54.5,30.7,29.67,NW,304,3.0,19.0,40,0.00,,,0.00,0.0,meteohub,2013-09-18 09:52:00,
2013-09-18 03:02:00,54.1,30.4,29.68,SE,132,4.0,16.0,40,0.00,,,0.00,0.0,meteohub,2013-09-18 10:02:00,
2013-09-18 03:07:00,54.0,32.0,29.68,SSW,203,6.0,10.0,43,0.00,,,0.00,0.0,meteohub,2013-09-18 10:07:00,
2013-09-18 03:12:00,53.4,32.5,29.67,SW,217,1.0,8.0,45,0.00,,,0.00,0.0,meteohub,2013-09-18 10:12:00,
2013-09-18 03:17:00,53.4,32.0,29.67,SW,215,0.0,8.0,44,0.00,,,0.00,0.0,meteohub,2013-09-18 10:17:00,
2013-09-18 03:22:00,53.1,32.4,29.67,SW,215,0.0,8.0,45,0.00,,,0.00,0.0,meteohub,2013-09-18 10:22:00,
2013-09-18 03:27:00,52.9,32.2,29.67,SW,215,0.0,8.0,45,0.00,,,0.00,0.0,meteohub,2013-09-18 10:27:00,
2013-09-18 03:37:00,51.6,30.4,29.66,SSW,212,1.0,4.0,44,0.00,,,0.00,0.0,meteohub,2013-09-18 10:37:00,
2013-09-18 03:42:00,51.3,30.0,29.66,SSW,212,1.0,4.0,44,0.00,,,0.00,0.0,meteohub,2013-09-18 10:42:00,
2013-09-18 03:47:00,50.5,29.5,29.66,SSW,211,1.0,4.0,44,0.00,,,0.00,0.0,meteohub,2013-09-18 10:47:00,
2013-09-18 03:57:00,49.6,31.8,29.64,WNW,292,0.0,7.0,50,0.00,,,0.00,0.0,meteohub,2013-09-18 10:57:00,
2013-09-18 04:02:00,49.5,30.6,29.64,WNW,286,2.0,7.0,48,0.00,,,0.00,0.0,meteohub,2013-09-18 11:02:00,
2013-09-18 04:07:00,49.1,30.7,29.65,ESE,108,1.0,7.0,49,0.00,,,0.00,0.0,meteohub,2013-09-18 11:07:00,
2013-09-18 04:12:00,48.7,30.9,29.65,ESE,108,0.0,6.0,50,0.00,,,0.00,0.0,meteohub,2013-09-18 11:12:00,
2013-09-18 04:17:00,48.4,31.1,29.65,SE,126,1.0,6.0,51,0.00,,,0.00,0.0,meteohub,2013-09-18 11:17:00,
2013-09-18 04:22:00,47.8,30.0,29.65,WSW,238,0.0,2.0,50,0.00,,,0.00,0.0,meteohub,2013-09-18 11:22:00,
2013-09-18 04:27:00,47.1,29.5,29.65,SW,223,1.0,6.0,50,0.00,,,0.00,0.0,meteohub,2013-09-18 11:27:00,
2013-09-18 04:32:00,46.8,29.1,29.65,SW,223,2.0,6.0,50,0.00,,,0.00,0.0,meteohub,2013-09-18 11:32:00,
2013-09-18 04:37:00,46.2,28.6,29.65,SW,217,1.0,4.0,50,0.00,,,0.00,0.0,meteohub,2013-09-18 11:37:00,
2013-09-18 04:42:00,45.7,28.0,29.65,SW,217,0.0,4.0,50,0.00,,,0.00,0.0,meteohub,2013-09-18 11:42:00,
2013-09-18 04:47:00,45.3,28.2,29.65,SW,217,0.0,4.0,51,0.00,,,0.00,0.0,meteohub,2013-09-18 11:47:00,
2013-09-18 04:52:00,45.0,27.9,29.66,SW,217,0.0,4.0,51,0.00,,,0.00,0.0,meteohub,2013-09-18 11:52:00,
2013-09-18 04:57:00,44.4,27.5,29.66,SW,217,0.0,2.0,51,0.00,,,0.00,0.0,meteohub,2013-09-18 11:57:00,
2013-09-18 05:02:00,43.9,27.0,29.67,SW,217,0.0,2.0,51,0.00,,,0.00,0.0,meteohub,2013-09-18 12:02:00,
2013-09-18 05:12:00,42.6,26.6,29.68,SW,217,0.0,2.0,53,0.00,,,0.00,0.0,meteohub,2013-09-18 12:12:00,
2013-09-18 05:17:00,42.1,26.2,29.68,SW,217,0.0,1.0,53,0.00,,,0.00,0.0,meteohub,2013-09-18 12:17:00,
2013-09-18 05:22:00,41.5,26.1,29.68,SW,217,0.0,1.0,54,0.00,,,0.00,0.0,meteohub,2013-09-18 12:22:00,
2013-09-18 05:27:00,41.2,26.6,29.68,SW,217,0.0,1.0,56,0.00,,,0.00,0.0,meteohub,2013-09-18 12:27:00,
2013-09-18 05:32:00,40.6,26.6,29.68,SW,217,0.0,1.0,57,0.00,,,0.00,0.0,meteohub,2013-09-18 12:32:00,
2013-09-18 05:37:00,40.3,26.6,29.68,SW,217,0.0,1.0,58,0.00,,,0.00,0.0,meteohub,2013-09-18 12:37:00,
2013-09-18 05:42:00,39.7,26.6,29.68,SW,217,0.0,1.0,59,0.00,,,0.00,0.0,meteohub,2013-09-18 12:42:00,
2013-09-18 05:47:00,39.4,26.6,29.69,SW,217,0.0,2.0,60,0.00,,,0.00,0.0,meteohub,2013-09-18 12:47:00,
2013-09-18 05:52:00,39.0,26.2,29.69,SW,217,1.0,2.0,60,0.00,,,0.00,0.0,meteohub,2013-09-18 12:52:00,
2013-09-18 05:57:00,38.7,26.4,29.69,SW,217,0.0,2.0,61,0.00,,,0.00,0.0,meteohub,2013-09-18 12:57:00,
2013-09-18 06:02:00,38.1,25.9,29.70,SW,217,0.0,2.0,61,0.00,,,0.00,0.0,meteohub,2013-09-18 13:02:00,
2013-09-18 06:12:00,37.6,25.7,29.70,SW,217,0.0,2.0,62,0.00,,,0.00,0.0,meteohub,2013-09-18 13:12:00,
2013-09-18 06:17:00,37.4,25.9,29.70,SW,217,0.0,1.0,63,0.00,,,0.00,0.0,meteohub,2013-09-18 13:17:00,
2013-09-18 06:22:00,37.0,25.7,29.70,SW,217,0.0,1.0,63,0.00,,,0.00,0.0,meteohub,2013-09-18 13:22:00,
2013-09-18 06:27:00,36.9,25.5,29.70,SW,217,0.0,1.0,63,0.00,,,0.00,0.0,meteohub,2013-09-18 13:27:00,
2013-09-18 06:37:00,36.3,25.3,29.71,SW,217,0.0,1.0,64,0.00,,,0.00,0.0,meteohub,2013-09-18 13:37:00,
2013-09-18 06:47:00,35.8,24.8,29.71,SW,217,0.0,1.0,64,0.00,,,0.00,7.0,meteohub,2013-09-18 13:47:00,
2013-09-18 06:52:00,35.8,25.2,29.72,SW,217,0.0,1.0,65,0.00,,,0.00,11.0,meteohub,2013-09-18 13:52:00,
2013-09-18 07:02:00,35.2,24.6,29.72,SW,217,0.0,0.0,65,0.00,,,0.00,16.0,meteohub,2013-09-18 14:02:00,
2013-09-18 07:12:00,35.2,24.6,29.72,SW,217,0.0,0.0,65,0.00,,,0.00,19.0,meteohub,2013-09-18 14:12:00,
2013-09-18 07:22:00,35.1,24.4,29.73,SW,217,0.0,1.0,65,0.00,,,0.00,21.0,meteohub,2013-09-18 14:22:00,
2013-09-18 07:32:00,35.2,24.3,29.73,SW,217,0.0,0.0,64,0.00,,,0.00,25.0,meteohub,2013-09-18 14:32:00,
2013-09-18 07:37:00,35.4,24.4,29.73,SW,217,0.0,0.0,64,0.00,,,0.00,25.0,meteohub,2013-09-18 14:37:00,
2013-09-18 07:47:00,36.1,25.2,29.73,SW,217,0.0,0.0,64,0.00,,,0.00,83.0,meteohub,2013-09-18 14:47:00,
2013-09-18 07:57:00,39.7,26.6,29.74,SW,217,0.0,0.0,59,0.00,,,0.00,39.0,meteohub,2013-09-18 14:57:00,
2013-09-18 08:02:00,40.5,27.7,29.74,SW,217,0.0,0.0,60,0.00,,,0.00,44.0,meteohub,2013-09-18 15:02:00,
2013-09-18 08:12:00,44.8,30.0,29.73,SW,217,0.0,1.0,56,0.00,,,0.00,44.0,meteohub,2013-09-18 15:12:00,
2013-09-18 08:22:00,49.3,32.0,29.74,SW,217,0.0,0.0,51,0.00,,,0.00,301.0,meteohub,2013-09-18 15:22:00,
2013-09-18 08:27:00,51.8,32.2,29.74,SW,217,0.0,0.0,47,0.00,,,0.00,139.0,meteohub,2013-09-18 15:27:00,
2013-09-18 08:37:00,55.0,32.9,29.73,SW,217,0.0,1.0,43,0.00,,,0.00,315.0,meteohub,2013-09-18 15:37:00,
2013-09-18 08:47:00,56.8,33.4,29.74,SW,217,0.0,1.0,41,0.00,,,0.00,40.0,meteohub,2013-09-18 15:47:00,
2013-09-18 08:57:00,58.3,34.0,29.74,SW,214,0.0,3.0,40,0.00,,,0.00,116.0,meteohub,2013-09-18 15:57:00,
2013-09-18 09:07:00,59.5,34.0,29.74,SW,215,1.0,1.0,38,0.00,,,0.00,169.0,meteohub,2013-09-18 16:07:00,
2013-09-18 09:17:00,60.8,32.9,29.74,NE,46,3.0,5.0,35,0.00,,,0.00,65.0,meteohub,2013-09-18 16:17:00,
2013-09-18 09:22:00,61.0,33.8,29.75,NE,44,2.0,5.0,36,0.00,,,0.00,171.0,meteohub,2013-09-18 16:22:00,
2013-09-18 09:27:00,61.9,34.0,29.74,ENE,75,2.0,4.0,35,0.00,,,0.00,158.0,meteohub,2013-09-18 16:27:00,
2013-09-18 09:37:00,61.9,34.7,29.75,NE,45,2.0,7.0,36,0.00,,,0.00,118.0,meteohub,2013-09-18 16:37:00,
2013-09-18 09:42:00,61.9,35.2,29.75,NE,37,3.0,7.0,37,0.00,,,0.00,601.0,meteohub,2013-09-18 16:42:00,
2013-09-18 09:47:00,62.4,35.8,29.75,NNE,32,3.0,7.0,37,0.00,,,0.00,617.0,meteohub,2013-09-18 16:47:00,
2013-09-18 09:52:00,62.4,35.8,29.74,NNE,23,4.0,7.0,37,0.00,,,0.00,629.0,meteohub,2013-09-18 16:52:00,
2013-09-18 09:57:00,62.6,35.2,29.74,NNE,31,6.0,7.0,36,0.00,,,0.00,649.0,meteohub,2013-09-18 16:57:00,
2013-09-18 10:02:00,62.8,36.1,29.74,North,0,6.0,6.0,37,0.00,,,0.00,663.0,meteohub,2013-09-18 17:02:00,
2013-09-18 10:07:00,63.3,36.0,29.74,North,5,4.0,7.0,36,0.00,,,0.00,677.0,meteohub,2013-09-18 17:07:00,
2013-09-18 10:12:00,63.3,36.0,29.74,North,11,2.0,9.0,36,0.00,,,0.00,691.0,meteohub,2013-09-18 17:12:00,
2013-09-18 10:17:00,63.7,36.9,29.74,NE,41,5.0,9.0,37,0.00,,,0.00,703.0,meteohub,2013-09-18 17:17:00,
2013-09-18 10:27:00,63.9,37.8,29.74,NE,42,7.0,10.0,38,0.00,,,0.00,731.0,meteohub,2013-09-18 17:27:00,
2013-09-18 10:32:00,64.6,37.8,29.75,NE,46,3.0,10.0,37,0.00,,,0.00,744.0,meteohub,2013-09-18 17:32:00,
2013-09-18 10:37:00,64.4,36.9,29.75,East,84,3.0,10.0,36,0.00,,,0.00,754.0,meteohub,2013-09-18 17:37:00,
2013-09-18 10:47:00,64.6,37.0,29.75,ENE,72,5.0,11.0,36,0.00,,,0.00,777.0,meteohub,2013-09-18 17:47:00,
2013-09-18 10:52:00,64.6,37.8,29.75,NNE,24,5.0,11.0,37,0.00,,,0.00,788.0,meteohub,2013-09-18 17:52:00,
2013-09-18 11:02:00,64.8,36.5,29.74,NE,44,6.0,10.0,35,0.00,,,0.00,805.0,meteohub,2013-09-18 18:02:00,
2013-09-18 11:07:00,65.1,36.9,29.74,ENE,66,4.0,10.0,35,0.00,,,0.00,816.0,meteohub,2013-09-18 18:07:00,
2013-09-18 11:17:00,65.8,36.7,29.74,NE,39,9.0,9.0,34,0.00,,,0.00,830.0,meteohub,2013-09-18 18:17:00,
2013-09-18 11:27:00,65.1,36.1,29.75,NNE,21,5.0,12.0,34,0.00,,,0.00,847.0,meteohub,2013-09-18 18:27:00,
2013-09-18 11:32:00,65.5,35.6,29.75,NNW,344,5.0,13.0,33,0.00,,,0.00,856.0,meteohub,2013-09-18 18:32:00,
2013-09-18 11:42:00,66.0,36.1,29.74,NE,56,6.0,13.0,33,0.00,,,0.00,868.0,meteohub,2013-09-18 18:42:00,
2013-09-18 11:52:00,66.4,36.3,29.75,North,0,8.0,11.0,33,0.00,,,0.00,884.0,meteohub,2013-09-18 18:52:00,
2013-09-18 12:02:00,66.6,36.5,29.75,NNW,346,9.0,14.0,33,0.00,,,0.00,893.0,meteohub,2013-09-18 19:02:00,
2013-09-18 12:07:00,66.9,36.9,29.75,East,94,5.0,14.0,33,0.00,,,0.00,893.0,meteohub,2013-09-18 19:07:00,
2013-09-18 12:12:00,67.3,37.2,29.75,NNE,15,4.0,14.0,33,0.00,,,0.00,898.0,meteohub,2013-09-18 19:12:00,
2013-09-18 12:22:00,67.6,39.0,29.75,NNE,33,5.0,10.0,35,0.00,,,0.00,905.0,meteohub,2013-09-18 19:22:00,
2013-09-18 12:32:00,66.9,36.9,29.74,NNE,17,0.0,10.0,33,0.00,,,0.00,912.0,meteohub,2013-09-18 19:32:00,
2013-09-18 12:42:00,67.5,38.1,29.75,ENE,61,5.0,9.0,34,0.00,,,0.00,914.0,meteohub,2013-09-18 19:42:00,
2013-09-18 12:47:00,68.0,38.7,29.75,North,0,7.0,9.0,34,0.00,,,0.00,914.0,meteohub,2013-09-18 19:47:00,
2013-09-18 12:57:00,67.6,37.6,29.75,East,90,1.0,9.0,33,0.00,,,0.00,914.0,meteohub,2013-09-18 19:57:00,
2013-09-18 13:02:00,68.5,38.3,29.75,NNE,13,5.0,8.0,33,0.00,,,0.00,912.0,meteohub,2013-09-18 20:02:00,
2013-09-18 13:07:00,69.1,37.9,29.75,East,79,0.0,10.0,32,0.00,,,0.00,911.0,meteohub,2013-09-18 20:07:00,
2013-09-18 13:12:00,70.2,38.8,29.74,NE,36,2.0,10.0,32,0.00,,,0.00,911.0,meteohub,2013-09-18 20:12:00,
2013-09-18 13:17:00,70.0,37.9,29.74,ENE,67,1.0,10.0,31,0.00,,,0.00,907.0,meteohub,2013-09-18 20:17:00,
2013-09-18 13:27:00,69.6,37.6,29.74,ESE,123,2.0,7.0,31,0.00,,,0.00,900.0,meteohub,2013-09-18 20:27:00,
2013-09-18 13:42:00,70.2,38.1,29.73,ENE,57,0.0,7.0,31,0.00,,,0.00,896.0,meteohub,2013-09-18 20:42:00,
2013-09-18 13:47:00,69.1,37.2,29.73,ENE,77,2.0,9.0,31,0.00,,,0.00,888.0,meteohub,2013-09-18 20:47:00,
2013-09-18 13:52:00,70.5,37.6,29.73,NNE,28,6.0,9.0,30,0.00,,,0.00,881.0,meteohub,2013-09-18 20:52:00,
2013-09-18 14:02:00,69.3,37.4,29.73,NE,44,2.0,10.0,31,0.00,,,0.00,867.0,meteohub,2013-09-18 21:02:00,
2013-09-18 14:12:00,68.9,37.0,29.73,NE,36,1.0,9.0,31,0.00,,,0.00,853.0,meteohub,2013-09-18 21:12:00,
2013-09-18 14:17:00,70.2,38.1,29.73,NNE,22,4.0,9.0,31,0.00,,,0.00,849.0,meteohub,2013-09-18 21:17:00,
2013-09-18 14:22:00,70.5,37.6,29.73,NNE,15,3.0,8.0,30,0.00,,,0.00,838.0,meteohub,2013-09-18 21:22:00,
2013-09-18 14:27:00,70.0,37.0,29.73,North,351,7.0,8.0,30,0.00,,,0.00,828.0,meteohub,2013-09-18 21:27:00,
2013-09-18 14:32:00,69.3,36.5,29.73,North,0,0.0,12.0,30,0.00,,,0.00,821.0,meteohub,2013-09-18 21:32:00,
2013-09-18 14:42:00,70.9,37.9,29.72,NE,52,5.0,12.0,30,0.00,,,0.00,800.0,meteohub,2013-09-18 21:42:00,
2013-09-18 14:52:00,70.5,37.6,29.72,North,355,7.0,9.0,30,0.00,,,0.00,779.0,meteohub,2013-09-18 21:52:00,
2013-09-18 15:02:00,70.2,36.5,29.72,ENE,76,1.0,9.0,29,0.00,,,0.00,756.0,meteohub,2013-09-18 22:02:00,
2013-09-18 15:07:00,71.1,37.2,29.72,NE,38,7.0,9.0,29,0.00,,,0.00,744.0,meteohub,2013-09-18 22:07:00,
2013-09-18 15:17:00,69.6,44.2,29.72,NNW,327,0.0,8.0,40,0.00,,,0.00,710.0,meteohub,2013-09-18 22:17:00,
2013-09-18 15:22:00,70.2,43.3,29.72,West,273,5.0,8.0,38,0.00,,,0.00,696.0,meteohub,2013-09-18 22:22:00,
2013-09-18 15:27:00,71.1,45.5,29.72,SW,226,0.0,10.0,40,0.00,,,0.00,680.0,meteohub,2013-09-18 22:27:00,
2013-09-18 15:37:00,71.1,45.5,29.72,SSW,209,0.0,10.0,40,0.00,,,0.00,652.0,meteohub,2013-09-18 22:37:00,
2013-09-18 15:42:00,70.3,45.5,29.72,South,171,7.0,9.0,41,0.00,,,0.00,640.0,meteohub,2013-09-18 22:42:00,
2013-09-18 15:57:00,70.3,45.5,29.71,WSW,246,5.0,8.0,41,0.00,,,0.00,594.0,meteohub,2013-09-18 22:57:00,
2013-09-18 16:02:00,70.2,44.8,29.71,South,169,0.0,9.0,40,0.00,,,0.00,584.0,meteohub,2013-09-18 23:02:00,
2013-09-18 16:12:00,70.3,45.5,29.71,South,179,0.0,10.0,41,0.00,,,0.00,545.0,meteohub,2013-09-18 23:12:00,
2013-09-18 16:17:00,69.6,45.5,29.71,WSW,241,4.0,10.0,42,0.00,,,0.00,529.0,meteohub,2013-09-18 23:17:00,
2013-09-18 16:22:00,68.9,45.5,29.71,WSW,244,3.0,10.0,43,0.00,,,0.00,517.0,meteohub,2013-09-18 23:22:00,
2013-09-18 16:32:00,69.3,45.9,29.71,SW,219,2.0,8.0,43,0.00,,,0.00,482.0,meteohub,2013-09-18 23:32:00,
2013-09-18 16:42:00,68.9,44.8,29.71,West,281,0.0,7.0,42,0.00,,,0.00,448.0,meteohub,2013-09-18 23:42:00,
2013-09-18 16:52:00,69.1,43.7,29.71,South,181,0.0,7.0,40,0.00,,,0.00,411.0,meteohub,2013-09-18 23:52:00,
2013-09-18 16:57:00,68.9,44.2,29.71,SE,146,4.0,7.0,41,0.00,,,0.00,396.0,meteohub,2013-09-18 23:57:00,
2013-09-18 17:02:00,69.1,44.4,29.71,South,176,0.0,7.0,41,0.00,,,0.00,374.0,meteohub,2013-09-19 00:02:00,
2013-09-18 17:12:00,68.5,44.6,29.71,WSW,242,3.0,6.0,42,0.00,,,0.00,339.0,meteohub,2013-09-19 00:12:00,
2013-09-18 17:17:00,67.8,42.6,29.71,West,273,0.0,7.0,40,0.00,,,0.00,320.0,meteohub,2013-09-19 00:17:00,
2013-09-18 17:27:00,67.8,43.3,29.71,SW,219,0.0,7.0,41,0.00,,,0.00,279.0,meteohub,2013-09-19 00:27:00,
2013-09-18 17:32:00,68.2,42.3,29.71,SW,216,0.0,2.0,39,0.00,,,0.00,262.0,meteohub,2013-09-19 00:32:00,
2013-09-18 17:37:00,68.5,43.9,29.72,SSW,199,0.0,2.0,41,0.00,,,0.00,239.0,meteohub,2013-09-19 00:37:00,
2013-09-18 17:42:00,68.5,43.9,29.72,SW,226,3.0,3.0,41,0.00,,,0.00,216.0,meteohub,2013-09-19 00:42:00,
2013-09-18 17:47:00,68.2,44.2,29.72,SW,230,1.0,5.0,42,0.00,,,0.00,193.0,meteohub,2013-09-19 00:47:00,
2013-09-18 17:52:00,67.8,43.3,29.72,SW,230,1.0,5.0,41,0.00,,,0.00,171.0,meteohub,2013-09-19 00:52:00,
2013-09-18 17:57:00,67.5,43.0,29.72,SW,230,0.0,5.0,41,0.00,,,0.00,146.0,meteohub,2013-09-19 00:57:00,
2013-09-18 18:02:00,67.3,42.8,29.72,SW,230,0.0,3.0,41,0.00,,,0.00,125.0,meteohub,2013-09-19 01:02:00,
2013-09-18 18:07:00,67.3,41.5,29.72,SW,230,0.0,1.0,39,0.00,,,0.00,107.0,meteohub,2013-09-19 01:07:00,
2013-09-18 18:12:00,67.3,41.5,29.72,SW,230,0.0,1.0,39,0.00,,,0.00,86.0,meteohub,2013-09-19 01:12:00,
2013-09-18 18:17:00,67.1,43.9,29.72,SW,231,0.0,1.0,43,0.00,,,0.00,32.0,meteohub,2013-09-19 01:17:00,
2013-09-18 18:22:00,67.1,43.9,29.73,SW,233,0.0,1.0,43,0.00,,,0.00,26.0,meteohub,2013-09-19 01:22:00,
2013-09-18 18:27:00,66.9,43.7,29.73,SW,233,0.0,5.0,43,0.00,,,0.00,18.0,meteohub,2013-09-19 01:27:00,
2013-09-18 18:37:00,66.4,43.9,29.73,SW,233,0.0,5.0,44,0.00,,,0.00,12.0,meteohub,2013-09-19 01:37:00,
2013-09-18 18:42:00,65.8,42.8,29.73,SW,233,0.0,1.0,43,0.00,,,0.00,11.0,meteohub,2013-09-19 01:42:00,
2013-09-18 18:52:00,64.6,42.3,29.73,SW,233,0.0,1.0,44,0.00,,,0.00,7.0,meteohub,2013-09-19 01:52:00,
2013-09-18 18:57:00,63.7,41.4,29.73,SW,233,0.0,1.0,44,0.00,,,0.00,5.0,meteohub,2013-09-19 01:57:00,
2013-09-18 19:07:00,61.9,40.3,29.73,SW,233,0.0,1.0,45,0.00,,,0.00,0.0,meteohub,2013-09-19 02:07:00,
2013-09-18 19:12:00,61.2,39.7,29.74,SW,233,0.0,1.0,45,0.00,,,0.00,0.0,meteohub,2013-09-19 02:12:00,
2013-09-18 19:22:00,59.5,39.4,29.74,SW,233,0.0,0.0,47,0.00,,,0.00,0.0,meteohub,2013-09-19 02:22:00,
2013-09-18 19:32:00,58.3,39.2,29.75,SW,233,0.0,2.0,49,0.00,,,0.00,0.0,meteohub,2013-09-19 02:32:00,
2013-09-18 19:37:00,57.6,38.5,29.75,SW,233,0.0,1.0,49,0.00,,,0.00,0.0,meteohub,2013-09-19 02:37:00,
2013-09-18 19:42:00,56.8,37.9,29.75,SW,233,0.0,0.0,49,0.00,,,0.00,0.0,meteohub,2013-09-19 02:42:00,
2013-09-18 19:52:00,55.6,36.7,29.75,SW,233,0.0,1.0,49,0.00,,,0.00,0.0,meteohub,2013-09-19 02:52:00,
2013-09-18 20:02:00,54.1,36.0,29.75,SW,233,0.0,0.0,50,0.00,,,0.00,0.0,meteohub,2013-09-19 03:02:00,
2013-09-18 20:07:00,53.8,36.1,29.75,SW,233,0.0,0.0,51,0.00,,,0.00,0.0,meteohub,2013-09-19 03:07:00,
2013-09-18 20:17:00,52.3,35.2,29.76,SW,233,0.0,0.0,52,0.00,,,0.00,0.0,meteohub,2013-09-19 03:17:00,
2013-09-18 20:27:00,51.3,34.7,29.77,SW,233,0.0,1.0,53,0.00,,,0.00,0.0,meteohub,2013-09-19 03:27:00,
2013-09-18 20:32:00,50.5,34.5,29.77,SW,233,0.0,1.0,54,0.00,,,0.00,0.0,meteohub,2013-09-19 03:32:00,
2013-09-18 20:37:00,50.2,34.2,29.77,SW,233,0.0,1.0,54,0.00,,,0.00,0.0,meteohub,2013-09-19 03:37:00,
2013-09-18 20:47:00,49.3,33.8,29.78,SW,233,0.0,1.0,55,0.00,,,0.00,0.0,meteohub,2013-09-19 03:47:00,
2013-09-18 20:52:00,48.7,33.3,29.78,SW,233,0.0,1.0,55,0.00,,,0.00,0.0,meteohub,2013-09-19 03:52:00,
2013-09-18 21:02:00,48.0,32.5,29.78,SW,233,0.0,1.0,55,0.00,,,0.00,0.0,meteohub,2013-09-19 04:02:00,
2013-09-18 21:07:00,47.8,32.9,29.79,SW,233,0.0,1.0,56,0.00,,,0.00,0.0,meteohub,2013-09-19 04:07:00,
2013-09-18 21:12:00,47.5,33.1,29.79,SW,233,0.0,0.0,57,0.00,,,0.00,0.0,meteohub,2013-09-19 04:12:00,
2013-09-18 21:17:00,47.1,32.7,29.79,SW,233,0.0,0.0,57,0.00,,,0.00,0.0,meteohub,2013-09-19 04:17:00,
2013-09-18 21:27:00,46.6,32.5,29.80,SW,233,0.0,0.0,58,0.00,,,0.00,0.0,meteohub,2013-09-19 04:27:00,
2013-09-18 21:32:00,46.0,32.0,29.80,SW,233,0.0,0.0,58,0.00,,,0.00,0.0,meteohub,2013-09-19 04:32:00,
2013-09-18 21:37:00,45.9,32.0,29.80,SW,233,0.0,0.0,58,0.00,,,0.00,0.0,meteohub,2013-09-19 04:37:00,
2013-09-18 21:42:00,45.5,32.0,29.80,SW,233,0.0,0.0,59,0.00,,,0.00,0.0,meteohub,2013-09-19 04:42:00,
2013-09-18 21:47:00,45.1,31.6,29.80,SW,233,0.0,1.0,59,0.00,,,0.00,0.0,meteohub,2013-09-19 04:47:00,
2013-09-18 21:52:00,45.0,31.5,29.80,SW,233,0.0,1.0,59,0.00,,,0.00,0.0,meteohub,2013-09-19 04:52:00,
2013-09-18 21:57:00,44.6,32.0,29.80,SW,233,0.0,1.0,61,0.00,,,0.00,0.0,meteohub,2013-09-19 04:57:00,
2013-09-18 22:02:00,44.4,31.8,29.80,SW,233,0.0,0.0,61,0.00,,,0.00,0.0,meteohub,2013-09-19 05:02:00,
2013-09-18 22:07:00,44.2,32.0,29.80,SW,233,0.0,0.0,62,0.00,,,0.00,0.0,meteohub,2013-09-19 05:07:00,
2013-09-18 22:17:00,44.1,32.4,29.81,SW,233,0.0,0.0,63,0.00,,,0.00,0.0,meteohub,2013-09-19 05:17:00,
2013-09-18 22:22:00,43.7,32.0,29.81,SW,233,0.0,0.0,63,0.00,,,0.00,0.0,meteohub,2013-09-19 05:22:00,
2013-09-18 22:32:00,43.3,32.0,29.81,SW,233,0.0,0.0,64,0.00,,,0.00,0.0,meteohub,2013-09-19 05:32:00,
2013-09-18 22:37:00,43.2,31.8,29.81,SW,233,0.0,0.0,64,0.00,,,0.00,0.0,meteohub,2013-09-19 05:37:00,
2013-09-18 22:42:00,43.0,31.6,29.81,SW,233,0.0,0.0,64,0.00,,,0.00,0.0,meteohub,2013-09-19 05:42:00,
2013-09-18 22:47:00,42.8,31.8,29.81,SW,233,0.0,1.0,65,0.00,,,0.00,0.0,meteohub,2013-09-19 05:47:00,
2013-09-18 22:52:00,42.6,31.6,29.81,SW,233,0.0,1.0,65,0.00,,,0.00,0.0,meteohub,2013-09-19 05:52:00,
2013-09-18 22:57:00,42.4,31.8,29.81,SW,233,0.0,0.0,66,0.00,,,0.00,0.0,meteohub,2013-09-19 05:57:00,
2013-09-18 23:02:00,42.3,31.6,29.81,SW,233,0.0,0.0,66,0.00,,,0.00,0.0,meteohub,2013-09-19 06:02:00,
2013-09-18 23:07:00,42.1,32.0,29.81,SW,233,0.0,0.0,67,0.00,,,0.00,0.0,meteohub,2013-09-19 06:07:00,
2013-09-18 23:12:00,41.9,31.8,29.81,SW,233,0.0,0.0,67,0.00,,,0.00,0.0,meteohub,2013-09-19 06:12:00,
2013-09-18 23:17:00,41.7,32.0,29.81,SW,233,0.0,0.0,68,0.00,,,0.00,0.0,meteohub,2013-09-19 06:17:00,
2013-09-18 23:27:00,41.5,32.2,29.81,SW,233,0.0,0.0,69,0.00,,,0.00,0.0,meteohub,2013-09-19 06:27:00,
2013-09-18 23:37:00,41.4,32.0,29.82,SW,233,0.0,0.0,69,0.00,,,0.00,0.0,meteohub,2013-09-19 06:37:00,
2013-09-18 23:47:00,41.0,32.0,29.82,SW,233,0.0,0.0,70,0.00,,,0.00,0.0,meteohub,2013-09-19 06:47:00,
2013-09-18 23:52:00,40.8,31.8,29.82,SW,233,0.0,0.0,70,0.00,,,0.00,0.0,meteohub,2013-09-19 06:52:00,
2013-09-18 23:57:00,40.8,31.8,29.82,SW,233,0.0,0.0,70,0.00,,,0.00,0.0,meteohub,2013-09-19 06:57:00,